TimeEST,TemperatureF,Dew PointF,Humidity,Sea Level PressureIn,VisibilityMPH,Wind Direction,Wind SpeedMPH,Gust SpeedMPH,PrecipitationIn,Events,Conditions,WindDirDegrees,DateUTC
12:55 AM,44.6,35.6,71,30.60,10.0,East,5.8,-,N/A,,Mostly Cloudy,90,2012-11-19 05:55:00
1:15 AM,44.6,35.6,71,30.60,10.0,ENE,6.9,-,N/A,,Overcast,70,2012-11-19 06:15:00
1:35 AM,44.6,35.6,71,30.60,10.0,East,5.8,-,N/A,,Overcast,90,2012-11-19 06:35:00
1:55 AM,42.8,33.8,70,30.59,10.0,East,4.6,-,N/A,,Scattered Clouds,80,2012-11-19 06:55:00
2:55 AM,42.8,37.4,81,30.57,10.0,ENE,5.8,-,N/A,,Overcast,70,2012-11-19 07:55:00
3:15 AM,44.6,37.4,76,30.56,10.0,ENE,6.9,-,N/A,,Overcast,70,2012-11-19 08:15:00
3:35 AM,44.6,37.4,76,30.55,10.0,ENE,5.8,-,N/A,,Overcast,70,2012-11-19 08:35:00
3:55 AM,44.6,37.4,76,30.55,10.0,ENE,8.1,-,N/A,,Overcast,60,2012-11-19 08:55:00
4:35 AM,44.6,37.4,76,30.54,10.0,ENE,8.1,-,N/A,,Scattered Clouds,60,2012-11-19 09:35:00
4:55 AM,44.6,37.4,76,30.54,10.0,ENE,8.1,-,N/A,,Mostly Cloudy,60,2012-11-19 09:55:00
5:55 AM,46.4,37.4,71,30.53,10.0,NE,10.4,-,N/A,,Overcast,40,2012-11-19 10:55:00
6:15 AM,46.4,37.4,71,30.52,10.0,NE,10.4,-,N/A,,Overcast,40,2012-11-19 11:15:00
6:35 AM,46.4,39.2,76,30.53,10.0,ENE,8.1,-,N/A,,Overcast,60,2012-11-19 11:35:00
7:35 AM,46.4,39.2,76,30.53,10.0,ENE,9.2,-,N/A,,Overcast,60,2012-11-19 12:35:00
7:55 AM,48.2,39.2,71,30.53,10.0,ENE,10.4,-,N/A,,Overcast,60,2012-11-19 12:55:00
8:35 AM,48.2,39.2,71,30.50,10.0,NE,9.2,-,N/A,,Overcast,50,2012-11-19 13:35:00
8:55 AM,48.2,39.2,71,30.51,10.0,NE,8.1,-,N/A,,Overcast,40,2012-11-19 13:55:00
9:15 AM,48.2,39.2,71,30.50,10.0,ENE,8.1,-,N/A,,Overcast,60,2012-11-19 14:15:00
9:35 AM,48.2,39.2,71,30.50,10.0,NE,9.2,-,N/A,,Overcast,40,2012-11-19 14:35:00
9:55 AM,50.0,39.2,66,30.49,10.0,ENE,10.4,-,N/A,,Overcast,60,2012-11-19 14:55:00
10:15 AM,50.0,39.2,66,30.49,10.0,NE,9.2,-,N/A,,Overcast,50,2012-11-19 15:15:00
10:35 AM,48.2,39.2,71,30.48,10.0,NE,9.2,-,N/A,,Overcast,50,2012-11-19 15:35:00
10:55 AM,50.0,39.2,66,30.47,10.0,NE,6.9,-,N/A,,Overcast,40,2012-11-19 15:55:00
11:15 AM,50.0,39.2,66,30.45,10.0,NE,10.4,-,N/A,,Overcast,50,2012-11-19 16:15:00
12:15 PM,50.0,41.0,71,30.43,10.0,NE,11.5,-,N/A,,Overcast,50,2012-11-19 17:15:00
12:35 PM,50.0,39.2,66,30.43,10.0,NE,9.2,-,N/A,,Overcast,50,2012-11-19 17:35:00
1:15 PM,48.2,39.2,71,30.42,10.0,NE,8.1,-,N/A,,Overcast,40,2012-11-19 18:15:00
1:36 PM,48.2,42.8,82,30.41,10.0,NE,9.2,-,N/A,,Overcast,40,2012-11-19 18:36:00
1:55 PM,48.2,41.0,76,30.40,10.0,NE,9.2,-,N/A,,Overcast,40,2012-11-19 18:55:00
2:15 PM,48.2,41.0,76,30.40,10.0,NE,9.2,-,N/A,,Overcast,50,2012-11-19 19:15:00
2:35 PM,48.2,41.0,76,30.39,10.0,NE,8.1,-,N/A,,Overcast,50,2012-11-19 19:35:00
2:55 PM,48.2,41.0,76,30.39,10.0,NE,10.4,-,N/A,,Overcast,50,2012-11-19 19:55:00
3:16 PM,48.2,41.0,76,30.39,10.0,NE,9.2,-,N/A,,Overcast,40,2012-11-19 20:16:00
3:35 PM,48.2,41.0,76,30.38,10.0,ENE,10.4,-,N/A,,Overcast,60,2012-11-19 20:35:00
3:55 PM,48.2,41.0,76,30.38,10.0,NE,11.5,-,N/A,,Overcast,50,2012-11-19 20:55:00
4:35 PM,48.2,41.0,76,30.37,10.0,ENE,9.2,-,N/A,,Overcast,60,2012-11-19 21:35:00
4:55 PM,48.2,41.0,76,30.37,10.0,ENE,9.2,-,N/A,,Overcast,60,2012-11-19 21:55:00
5:15 PM,48.2,41.0,76,30.36,10.0,ENE,8.1,-,N/A,,Overcast,60,2012-11-19 22:15:00
5:36 PM,48.2,41.0,76,30.36,10.0,ENE,9.2,-,N/A,,Overcast,60,2012-11-19 22:36:00
5:55 PM,48.2,41.0,76,30.36,10.0,NE,9.2,-,N/A,,Overcast,50,2012-11-19 22:55:00
6:15 PM,48.2,41.0,76,30.36,10.0,NE,9.2,-,N/A,,Overcast,50,2012-11-19 23:15:00
6:55 PM,48.2,41.0,76,30.34,10.0,NNE,6.9,-,N/A,,Overcast,30,2012-11-19 23:55:00
7:55 PM,48.2,39.2,71,30.32,10.0,NE,5.8,-,N/A,,Overcast,50,2012-11-20 00:55:00
8:35 PM,48.2,39.2,71,30.31,10.0,NNE,5.8,-,N/A,,Overcast,20,2012-11-20 01:35:00
8:55 PM,48.2,39.2,71,30.30,10.0,NNE,8.1,-,N/A,,Overcast,20,2012-11-20 01:55:00
9:15 PM,48.2,39.2,71,30.29,10.0,NNE,8.1,-,N/A,,Overcast,20,2012-11-20 02:15:00
9:35 PM,48.2,39.2,71,30.29,10.0,NNE,5.8,-,N/A,,Overcast,20,2012-11-20 02:35:00
9:55 PM,48.2,39.2,71,30.28,10.0,NNE,8.1,-,N/A,,Overcast,20,2012-11-20 02:55:00
10:15 PM,48.2,39.2,71,30.28,10.0,NNE,8.1,-,N/A,,Overcast,30,2012-11-20 03:15:00
10:35 PM,48.2,37.4,66,30.27,10.0,NNE,8.1,-,N/A,,Overcast,30,2012-11-20 03:35:00
10:55 PM,48.2,39.2,71,30.27,10.0,NE,8.1,-,N/A,,Overcast,40,2012-11-20 03:55:00
11:15 PM,48.2,37.4,66,30.27,10.0,NE,8.1,-,N/A,,Overcast,40,2012-11-20 04:15:00
11:35 PM,46.4,37.4,71,30.27,10.0,NNE,6.9,-,N/A,,Overcast,30,2012-11-20 04:35:00
11:55 PM,46.4,37.4,71,30.26,10.0,NNE,5.8,-,N/A,,Overcast,20,2012-11-20 04:55:00